M I D A S
Marine Information and Data Acquisition System
Tripno 2058 of the Zeeleeuw from 2011-03-15 07:59:48 to 2011-03-15 15:20:23
Back to CruiseResearch ActivitiesStationsMapUnderway DataData graphs

EquipmentUnitsComments
TimeDGPSUTC
LatitudeDGPSDM.mWGS84
LongitudeDGPSDM.mWGS84
SpeedMeteo Stationm/sRelative wind speed
DirectionMeteo StationdegRelative wind direction
TemperatureMeteo Stationdeg CelciusAir temperature
PressureMeteo StationPaAtmospheric pressure
HumidityMeteo Station%Relative humidity
Missing or incorrect values are displayed as -999
Metereological data collected by the RV Zeeleeuw from 2011-03-15 07:57:52 to 2011-03-15 15:27:58
                                                                                    Next 1000 lines
Time Latitude Longitude Speed Direction Temperature Pressure Humidity
2011-03-15 07:58:02 51°13.662 2°55.959 -999 23 7.8 101500 51
2011-03-15 07:58:07 51°13.662 2°55.96 -999 35 7.8 101500 51
2011-03-15 07:58:12 51°13.662 2°55.959 -999 282 7.8 101510 51
2011-03-15 07:58:16 51°13.662 2°55.96 -999 326 7.8 101510 51
2011-03-15 07:58:21 51°13.662 2°55.96 -999 320 7.9 101510 51
2011-03-15 07:58:27 51°13.662 2°55.96 -999 35 7.9 101510 51
2011-03-15 07:58:32 51°13.662 2°55.96 -999 23 7.9 101510 51
2011-03-15 07:58:37 51°13.662 2°55.96 -999 316 7.9 101510 51
2011-03-15 07:58:41 51°13.662 2°55.96 -999 316 7.8 101510 51
2011-03-15 07:58:46 51°13.662 2°55.96 -999 34 7.8 101510 51
2011-03-15 07:58:52 51°13.662 2°55.96 -999 23 7.9 101510 51
2011-03-15 07:58:57 51°13.662 2°55.961 -999 316 7.9 101510 51
2011-03-15 07:59:01 51°13.662 2°55.961 -999 325 7.9 101510 51
2011-03-15 07:59:06 51°13.662 2°55.961 -999 322 7.9 101510 51
2011-03-15 07:59:11 51°13.662 2°55.961 -999 282 7.9 101510 50
2011-03-15 07:59:16 51°13.662 2°55.961 -999 319 7.9 101510 50
2011-03-15 07:59:21 51°13.662 2°55.961 -999 321 7.9 101510 51
2011-03-15 07:59:25 51°13.662 2°55.961 -999 35 7.9 101510 51
2011-03-15 07:59:30 51°13.662 2°55.961 -999 320 7.8 101510 51
2011-03-15 07:59:36 51°13.661 2°55.961 -999 323 7.8 101510 51
2011-03-15 07:59:41 51°13.661 2°55.961 -999 320 7.8 101510 51
2011-03-15 07:59:45 51°13.661 2°55.961 -999 321 7.8 101510 51
2011-03-15 07:59:50 51°13.661 2°55.961 -999 315 7.9 101510 51
2011-03-15 07:59:56 51°13.661 2°55.961 -999 322 7.9 101510 51
2011-03-15 08:00:01 51°13.661 2°55.961 -999 282 7.8 101510 51
2011-03-15 08:00:06 51°13.661 2°55.961 -999 325 7.8 101510 51
2011-03-15 08:00:11 51°13.661 2°55.96 -999 325 7.8 101510 51
2011-03-15 08:00:16 51°13.661 2°55.96 -999 319 7.8 101510 51
2011-03-15 08:00:21 51°13.661 2°55.958 -999 321 7.8 101510 51
2011-03-15 08:00:25 51°13.662 2°55.956 -999 34 7.8 101510 51
2011-03-15 08:00:30 51°13.663 2°55.953 -999 23 7.8 101510 51
2011-03-15 08:00:35 51°13.664 2°55.949 -999 35 7.8 101510 51
2011-03-15 08:00:40 51°13.665 2°55.945 -999 23 7.8 101510 51
2011-03-15 08:00:46 51°13.666 2°55.939 -999 35 7.8 101510 51
2011-03-15 08:00:52 51°13.668 2°55.933 -999 23 7.8 101510 51
2011-03-15 08:00:57 51°13.669 2°55.927 -999 318 7.8 101510 51
2011-03-15 08:01:03 51°13.671 2°55.919 -999 324 7.8 101510 51
2011-03-15 08:01:08 51°13.672 2°55.912 -999 34 7.8 101510 51
2011-03-15 08:01:13 51°13.674 2°55.904 -999 282 7.8 101510 51
2011-03-15 08:01:18 51°13.676 2°55.896 -999 242 7.8 101510 51
2011-03-15 08:01:23 51°13.677 2°55.888 -999 318 7.9 101510 51
2011-03-15 08:01:28 51°13.679 2°55.88 -999 321 7.9 101510 51
2011-03-15 08:01:33 51°13.681 2°55.872 -999 319 7.8 101510 51
2011-03-15 08:01:38 51°13.682 2°55.864 -999 35 7.8 101510 51
2011-03-15 08:01:43 51°13.684 2°55.856 -999 23 7.8 101510 51
2011-03-15 08:01:48 51°13.686 2°55.848 -999 35 7.8 101510 51
2011-03-15 08:01:53 51°13.687 2°55.84 -999 23 7.9 101510 50
2011-03-15 08:01:58 51°13.688 2°55.832 -999 322 7.9 101510 50
2011-03-15 08:02:03 51°13.69 2°55.824 -999 282 7.8 101510 51
2011-03-15 08:02:08 51°13.691 2°55.815 -999 317 7.8 101510 51
2011-03-15 08:02:13 51°13.692 2°55.807 -999 315 7.8 101510 51
2011-03-15 08:02:18 51°13.693 2°55.799 -999 326 7.8 101510 51
2011-03-15 08:02:23 51°13.694 2°55.79 -999 327 7.9 101510 50
2011-03-15 08:02:28 51°13.695 2°55.782 -999 338 7.9 101510 50
2011-03-15 08:02:33 51°13.696 2°55.773 -999 342 7.8 101510 51
2011-03-15 08:02:38 51°13.696 2°55.765 -999 338 7.8 101510 51
2011-03-15 08:02:43 51°13.697 2°55.757 -999 341 7.9 101510 51
2011-03-15 08:02:48 51°13.697 2°55.75 -999 342 7.9 101510 51
2011-03-15 08:02:53 51°13.697 2°55.743 -999 340 7.8 101510 51
2011-03-15 08:02:58 51°13.697 2°55.737 0.5 330 7.8 101510 51
2011-03-15 08:03:03 51°13.697 2°55.733 0.3 332 7.8 101510 51
2011-03-15 08:03:08 51°13.698 2°55.73 0.3 335 7.8 101510 51
2011-03-15 08:03:13 51°13.698 2°55.728 0.1 282 7.8 101510 51
2011-03-15 08:03:18 51°13.698 2°55.727 0.1 340 7.8 101510 51
2011-03-15 08:03:22 51°13.698 2°55.727 0.1 341 7.9 101510 51
2011-03-15 08:03:27 51°13.699 2°55.726 3.4 345 7.9 101510 51
2011-03-15 08:03:32 51°13.7 2°55.727 1 351 7.8 101510 51
2011-03-15 08:03:37 51°13.701 2°55.727 3.7 351 7.8 101510 51
2011-03-15 08:03:42 51°13.702 2°55.728 4 356 7.8 101510 50
2011-03-15 08:03:46 51°13.703 2°55.729 3.4 356 7.8 101510 50
2011-03-15 08:03:51 51°13.704 2°55.73 3.2 351 7.8 101510 50
2011-03-15 08:03:56 51°13.706 2°55.731 3.3 -999 7.8 101510 50
2011-03-15 08:04:01 51°13.708 2°55.733 2.2 358 7.8 101500 50
2011-03-15 08:04:06 51°13.71 2°55.734 2.6 1 7.8 101500 50
2011-03-15 08:04:10 51°13.711 2°55.734 1.9 3 7.8 101500 53
2011-03-15 08:04:15 51°13.713 2°55.734 0.2 16 7.8 101500 53
2011-03-15 08:04:21 51°13.713 2°55.735 1.8 16 7.8 101500 49
2011-03-15 08:04:26 51°13.713 2°55.734 0.3 17 7.8 101500 49
2011-03-15 08:04:30 51°13.713 2°55.734 2 20 7.8 101500 49
2011-03-15 08:04:35 51°13.711 2°55.734 1.6 21 7.8 101500 49
2011-03-15 08:04:40 51°13.71 2°55.733 1.8 23 7.8 101500 52
2011-03-15 08:04:45 51°13.708 2°55.733 1.1 21 7.8 101500 52
2011-03-15 08:04:50 51°13.706 2°55.732 1 21 7.8 101500 51
2011-03-15 08:04:55 51°13.705 2°55.732 1.2 25 7.8 101500 51
2011-03-15 08:05:01 51°13.704 2°55.731 2 29 7.8 101510 50
2011-03-15 08:05:07 51°13.704 2°55.731 2.4 27 7.8 101510 50
2011-03-15 08:05:13 51°13.705 2°55.731 0.3 25 7.8 101500 50
2011-03-15 08:05:18 51°13.707 2°55.73 0.1 33 7.8 101500 50
2011-03-15 08:05:23 51°13.709 2°55.729 0.1 28 7.8 101500 49
2011-03-15 08:05:28 51°13.713 2°55.727 0.1 24 7.8 101500 49
2011-03-15 08:05:33 51°13.717 2°55.725 0.1 10 7.8 101510 51
2011-03-15 08:05:38 51°13.722 2°55.721 0.1 11 7.8 101510 51
2011-03-15 08:05:42 51°13.726 2°55.718 0.4 6 7.8 101500 51
2011-03-15 08:05:47 51°13.732 2°55.713 3.4 20 7.8 101500 51
2011-03-15 08:05:52 51°13.739 2°55.707 2.6 20 7.8 101500 51
2011-03-15 08:05:57 51°13.747 2°55.701 3.5 10 7.8 101500 51
2011-03-15 08:06:02 51°13.755 2°55.694 1 7 7.8 101500 49
2011-03-15 08:06:06 51°13.763 2°55.689 3.3 6 7.8 101500 49
2011-03-15 08:06:11 51°13.772 2°55.682 2.8 5 7.8 101500 53
2011-03-15 08:06:17 51°13.784 2°55.673 1.7 346 7.8 101500 53
2011-03-15 08:06:22 51°13.795 2°55.665 4 346 7.8 101500 50
2011-03-15 08:06:26 51°13.804 2°55.659 1.6 356 7.8 101500 50
2011-03-15 08:06:31 51°13.815 2°55.651 2.8 355 7.8 101500 50
2011-03-15 08:06:36 51°13.827 2°55.642 3.7 1 7.8 101500 50
2011-03-15 08:06:41 51°13.838 2°55.633 4.4 354 7.8 101500 50
2011-03-15 08:06:46 51°13.85 2°55.624 5.2 354 7.8 101500 50
2011-03-15 08:06:50 51°13.859 2°55.616 4.6 347 7.8 101500 50
2011-03-15 08:06:55 51°13.872 2°55.608 3.3 -999 7.8 101500 50
2011-03-15 08:07:00 51°13.884 2°55.599 4.2 354 7.8 101500 50
2011-03-15 08:07:05 51°13.896 2°55.589 4.1 356 7.8 101500 50
2011-03-15 08:07:10 51°13.909 2°55.58 4.3 358 7.8 101500 51
2011-03-15 08:07:14 51°13.919 2°55.573 4.7 3 7.8 101500 51
2011-03-15 08:07:19 51°13.931 2°55.564 0.4 2 7.8 101510 52
2011-03-15 08:07:25 51°13.947 2°55.553 0.3 4 7.8 101510 52
2011-03-15 08:07:30 51°13.96 2°55.544 0.2 3 7.8 101500 53
2011-03-15 08:07:34 51°13.97 2°55.536 0.1 359 7.8 101500 53
2011-03-15 08:07:39 51°13.983 2°55.527 -999 4 7.8 101500 50
2011-03-15 08:07:44 51°13.995 2°55.517 0.1 5 7.8 101500 50
2011-03-15 08:07:50 51°14.011 2°55.505 0.1 7 7.8 101500 51
2011-03-15 08:07:54 51°14.021 2°55.498 -999 1 7.8 101500 51
2011-03-15 08:07:58 51°14.031 2°55.49 -999 9 7.8 101500 51
2011-03-15 08:08:04 51°14.047 2°55.479 -999 1 7.8 101500 51
2011-03-15 08:08:09 51°14.06 2°55.47 0.1 355 7.8 101500 51
2011-03-15 08:08:14 51°14.073 2°55.461 0.1 351 7.8 101500 51
2011-03-15 08:08:19 51°14.086 2°55.451 0.1 351 7.8 101500 51
2011-03-15 08:08:24 51°14.1 2°55.441 0.2 -999 7.8 101500 51
2011-03-15 08:08:30 51°14.116 2°55.429 0.1 3 7.8 101500 51
2011-03-15 08:08:34 51°14.126 2°55.421 -999 359 7.8 101500 51
2011-03-15 08:08:38 51°14.137 2°55.413 -999 356 7.8 101500 51
2011-03-15 08:08:44 51°14.153 2°55.4 0.1 355 7.8 101500 51
2011-03-15 08:08:50 51°14.169 2°55.388 0.9 1 7.8 101500 51
2011-03-15 08:08:54 51°14.18 2°55.379 1.1 355 7.8 101500 51
2011-03-15 08:09:00 51°14.196 2°55.366 0.4 356 7.8 101500 51
2011-03-15 08:09:04 51°14.207 2°55.357 0.8 354 7.8 101500 51
2011-03-15 08:09:09 51°14.22 2°55.345 3.7 357 7.8 101500 51
2011-03-15 08:09:14 51°14.234 2°55.334 1.6 356 7.8 101500 51
2011-03-15 08:09:19 51°14.247 2°55.322 0.5 359 7.8 101500 53
2011-03-15 08:09:25 51°14.263 2°55.308 0.1 357 7.8 101500 53
2011-03-15 08:09:30 51°14.276 2°55.295 0.1 -999 7.8 101500 50
2011-03-15 08:09:34 51°14.286 2°55.285 6.7 8 7.8 101500 50
2011-03-15 08:09:40 51°14.302 2°55.269 4.8 9 7.8 101500 51
2011-03-15 08:09:46 51°14.318 2°55.253 4.3 11 7.8 101500 51
2011-03-15 08:09:50 51°14.329 2°55.242 2.9 7 7.8 101490 50
2011-03-15 08:09:55 51°14.343 2°55.229 1.8 12 7.8 101490 50
2011-03-15 08:10:01 51°14.359 2°55.213 1.8 6 7.8 101500 49
2011-03-15 08:10:06 51°14.373 2°55.199 2.8 6 7.8 101500 49
2011-03-15 08:10:10 51°14.385 2°55.188 2.9 2 7.8 101490 51
2011-03-15 08:10:16 51°14.401 2°55.171 2.7 7 7.8 101490 51
2011-03-15 08:10:21 51°14.416 2°55.156 3.2 5 7.8 101490 52
2011-03-15 08:10:26 51°14.43 2°55.14 3.8 13 7.8 101490 52
2011-03-15 08:10:30 51°14.441 2°55.127 4.6 13 7.8 101490 50
2011-03-15 08:10:35 51°14.455 2°55.112 0.9 12 7.8 101490 50
2011-03-15 08:10:40 51°14.469 2°55.095 0.9 4 7.8 101490 52
2011-03-15 08:10:45 51°14.483 2°55.079 3.8 6 7.8 101490 52
2011-03-15 08:10:50 51°14.498 2°55.064 3.8 6 7.8 101490 52
2011-03-15 08:10:54 51°14.51 2°55.051 2.8 7 7.8 101490 52
2011-03-15 08:10:59 51°14.525 2°55.035 1.3 1 7.8 101490 51
2011-03-15 08:11:04 51°14.54 2°55.02 2.5 4 7.8 101490 51
2011-03-15 08:11:09 51°14.555 2°55.004 1.1 1 7.8 101490 53
2011-03-15 08:11:14 51°14.57 2°54.987 1.8 4 7.8 101490 53
2011-03-15 08:11:19 51°14.585 2°54.971 2.7 7 7.8 101490 49
2011-03-15 08:11:24 51°14.599 2°54.954 4.9 8 7.8 101490 49
2011-03-15 08:11:29 51°14.615 2°54.939 5.6 8 7.7 101490 49
2011-03-15 08:11:34 51°14.63 2°54.925 6.2 10 7.7 101490 49
2011-03-15 08:11:39 51°14.646 2°54.911 5.2 10 7.7 101490 50
2011-03-15 08:11:44 51°14.662 2°54.896 4.9 13 7.7 101490 50
2011-03-15 08:11:49 51°14.677 2°54.881 3.3 5 7.7 101490 49
2011-03-15 08:11:54 51°14.692 2°54.865 2.8 5 7.7 101490 49
2011-03-15 08:11:59 51°14.707 2°54.849 2.9 4 7.7 101490 50
2011-03-15 08:12:04 51°14.722 2°54.833 3.5 8 7.7 101490 50
2011-03-15 08:12:09 51°14.737 2°54.818 3.8 7 7.7 101490 52
2011-03-15 08:12:14 51°14.752 2°54.802 6.4 13 7.7 101490 52
2011-03-15 08:12:19 51°14.768 2°54.786 6.2 14 7.7 101490 52
2011-03-15 08:12:24 51°14.782 2°54.77 4 15 7.7 101490 52
2011-03-15 08:12:30 51°14.8 2°54.751 4 14 7.7 101490 51
2011-03-15 08:12:34 51°14.812 2°54.737 3.3 13 7.7 101490 51
2011-03-15 08:12:38 51°14.823 2°54.723 3.6 11 7.7 101490 52
2011-03-15 08:12:44 51°14.84 2°54.703 3.8 10 7.7 101490 52
2011-03-15 08:12:49 51°14.853 2°54.684 2.3 10 7.7 101490 52
2011-03-15 08:12:54 51°14.867 2°54.667 2.7 10 7.7 101490 52
2011-03-15 08:12:59 51°14.881 2°54.648 1.6 10 7.7 101490 50
2011-03-15 08:13:04 51°14.894 2°54.629 0.8 11 7.7 101490 50
2011-03-15 08:13:09 51°14.907 2°54.61 0.3 9 7.7 101490 50
2011-03-15 08:13:14 51°14.921 2°54.593 0.2 6 7.7 101490 50
2011-03-15 08:13:18 51°14.932 2°54.577 3.5 8 7.7 101490 49
2011-03-15 08:13:24 51°14.948 2°54.556 4 9 7.7 101490 49
2011-03-15 08:13:29 51°14.962 2°54.537 3.4 9 7.7 101500 51
2011-03-15 08:13:34 51°14.976 2°54.52 3 7 7.7 101500 51
2011-03-15 08:13:39 51°14.99 2°54.502 4.9 9 7.7 101500 49
2011-03-15 08:13:44 51°15.005 2°54.485 3.1 7 7.7 101500 49
2011-03-15 08:13:49 51°15.019 2°54.468 3.1 6 7.7 101500 49
2011-03-15 08:13:54 51°15.034 2°54.451 0.1 6 7.7 101500 49
2011-03-15 08:13:58 51°15.045 2°54.436 0.1 6 7.7 101500 50
2011-03-15 08:14:04 51°15.062 2°54.414 -999 9 7.7 101500 50
2011-03-15 08:14:09 51°15.075 2°54.395 -999 9 7.7 101490 50
2011-03-15 08:14:14 51°15.089 2°54.377 -999 7 7.7 101490 50
2011-03-15 08:14:19 51°15.102 2°54.357 -999 5 7.7 101490 51
2011-03-15 08:14:25 51°15.119 2°54.334 -999 9 7.7 101490 51
2011-03-15 08:14:29 51°15.13 2°54.319 -999 9 7.7 101490 51
2011-03-15 08:14:34 51°15.144 2°54.301 -999 13 7.7 101490 51
2011-03-15 08:14:39 51°15.158 2°54.283 -999 12 7.6 101500 51
2011-03-15 08:14:44 51°15.172 2°54.264 -999 9 7.6 101500 51
2011-03-15 08:14:49 51°15.186 2°54.246 -999 7 7.6 101490 51
2011-03-15 08:14:54 51°15.2 2°54.228 -999 5 7.6 101490 51
2011-03-15 08:14:59 51°15.214 2°54.21 -999 5 7.7 101490 51
2011-03-15 08:15:04 51°15.228 2°54.191 -999 9 7.7 101490 51
2011-03-15 08:15:09 51°15.242 2°54.173 -999 10 7.7 101490 50
2011-03-15 08:15:14 51°15.256 2°54.155 -999 5 7.7 101490 50
2011-03-15 08:15:19 51°15.27 2°54.136 -999 4 7.7 101500 51
2011-03-15 08:15:24 51°15.284 2°54.118 -999 6 7.7 101500 51
2011-03-15 08:15:29 51°15.298 2°54.1 -999 12 7.6 101500 51
2011-03-15 08:15:34 51°15.312 2°54.082 -999 8 7.6 101500 51
2011-03-15 08:15:39 51°15.326 2°54.064 -999 7 7.6 101510 50
2011-03-15 08:15:44 51°15.34 2°54.046 -999 14 7.6 101510 50
2011-03-15 08:15:49 51°15.355 2°54.028 -999 13 7.6 101490 51
2011-03-15 08:15:54 51°15.369 2°54.01 -999 11 7.6 101490 51
2011-03-15 08:15:59 51°15.383 2°53.992 -999 9 7.6 101500 51
2011-03-15 08:16:04 51°15.397 2°53.974 -999 9 7.6 101500 51
2011-03-15 08:16:09 51°15.411 2°53.956 -999 7 7.7 101490 51
2011-03-15 08:16:14 51°15.425 2°53.939 -999 8 7.7 101490 51
2011-03-15 08:16:19 51°15.44 2°53.921 -999 8 7.7 101490 51
2011-03-15 08:16:24 51°15.454 2°53.904 -999 8 7.7 101490 51
2011-03-15 08:16:29 51°15.468 2°53.887 -999 8 7.6 101490 51
2011-03-15 08:16:34 51°15.483 2°53.87 -999 7 7.6 101490 51
2011-03-15 08:16:38 51°15.495 2°53.856 -999 5 7.6 101490 51
2011-03-15 08:16:44 51°15.512 2°53.835 -999 5 7.6 101490 51
2011-03-15 08:16:50 51°15.529 2°53.815 -999 6 7.6 101490 51
2011-03-15 08:16:54 51°15.541 2°53.801 -999 4 7.6 101490 51
2011-03-15 08:16:58 51°15.552 2°53.787 -999 2 7.6 101490 51
2011-03-15 08:17:04 51°15.569 2°53.766 -999 360 7.6 101490 51
2011-03-15 08:17:09 51°15.584 2°53.749 -999 5 7.6 101490 51
2011-03-15 08:17:14 51°15.598 2°53.732 -999 5 7.6 101490 51
2011-03-15 08:17:19 51°15.612 2°53.715 -999 3 7.6 101490 51
2011-03-15 08:17:24 51°15.627 2°53.698 -999 2 7.6 101490 51
2011-03-15 08:17:29 51°15.641 2°53.681 -999 1 7.6 101490 51
2011-03-15 08:17:34 51°15.656 2°53.664 -999 4 7.6 101490 51
2011-03-15 08:17:39 51°15.67 2°53.647 -999 4 7.5 101480 51
2011-03-15 08:17:44 51°15.685 2°53.629 -999 4 7.5 101480 51
2011-03-15 08:17:49 51°15.699 2°53.612 -999 4 7.5 101490 50
2011-03-15 08:17:54 51°15.714 2°53.595 -999 2 7.5 101490 50
2011-03-15 08:17:59 51°15.728 2°53.578 -999 2 7.5 101480 51
2011-03-15 08:18:04 51°15.742 2°53.561 -999 5 7.5 101480 51
2011-03-15 08:18:09 51°15.757 2°53.544 -999 2 7.5 101490 51
2011-03-15 08:18:14 51°15.771 2°53.526 -999 2 7.5 101490 51
2011-03-15 08:18:19 51°15.786 2°53.509 -999 1 7.5 101490 50
2011-03-15 08:18:24 51°15.8 2°53.492 -999 4 7.5 101490 50
2011-03-15 08:18:29 51°15.816 2°53.476 -999 4 7.5 101480 51
2011-03-15 08:18:34 51°15.831 2°53.461 -999 5 7.5 101480 51
2011-03-15 08:18:39 51°15.846 2°53.447 -999 4 7.5 101490 51
2011-03-15 08:18:44 51°15.862 2°53.433 -999 3 7.5 101490 51
2011-03-15 08:18:49 51°15.879 2°53.42 5.5 3 7.5 101490 51
2011-03-15 08:18:54 51°15.895 2°53.406 7.2 1 7.5 101490 51
2011-03-15 08:18:59 51°15.911 2°53.393 7.8 4 7.5 101470 51
2011-03-15 08:19:04 51°15.927 2°53.38 8.3 360 7.5 101470 51
2011-03-15 08:19:09 51°15.943 2°53.367 8.4 1 7.5 101470 51
2011-03-15 08:19:14 51°15.96 2°53.354 5.9 3 7.5 101470 51
2011-03-15 08:19:19 51°15.976 2°53.341 5.5 2 7.4 101480 52
2011-03-15 08:19:24 51°15.992 2°53.328 8.3 4 7.4 101480 52
2011-03-15 08:19:29 51°16.009 2°53.316 8.2 1 7.4 101480 49
2011-03-15 08:19:34 51°16.025 2°53.303 8.9 1 7.4 101480 49
2011-03-15 08:19:38 51°16.038 2°53.292 6 2 7.4 101480 49
2011-03-15 08:19:44 51°16.058 2°53.277 8.2 -999 7.4 101480 49
2011-03-15 08:19:49 51°16.074 2°53.264 8.3 1 7.4 101480 52
2011-03-15 08:19:54 51°16.091 2°53.253 8.4 2 7.4 101480 52
2011-03-15 08:19:58 51°16.104 2°53.243 6 3 7.4 101470 50
2011-03-15 08:20:04 51°16.124 2°53.228 9.2 3 7.4 101470 50
2011-03-15 08:20:09 51°16.141 2°53.215 5.4 2 7.4 101480 49
2011-03-15 08:20:14 51°16.157 2°53.202 6.1 3 7.4 101480 49
2011-03-15 08:20:19 51°16.173 2°53.189 6.6 3 7.4 101480 50
2011-03-15 08:20:24 51°16.189 2°53.175 7 5 7.4 101480 50
2011-03-15 08:20:29 51°16.206 2°53.162 5.8 3 7.4 101480 50
2011-03-15 08:20:34 51°16.222 2°53.149 9.2 3 7.4 101480 50
2011-03-15 08:20:39 51°16.239 2°53.136 8.1 3 7.4 101480 52
2011-03-15 08:20:44 51°16.255 2°53.123 8.3 3 7.4 101480 52
2011-03-15 08:20:49 51°16.271 2°53.11 6.5 5 7.4 101470 52
2011-03-15 08:20:54 51°16.288 2°53.098 6.1 4 7.4 101470 52
2011-03-15 08:20:58 51°16.301 2°53.088 8.4 2 7.4 101480 51
2011-03-15 08:21:04 51°16.321 2°53.072 8.6 5 7.4 101480 51
2011-03-15 08:21:09 51°16.337 2°53.059 8.2 5 7.4 101480 52
2011-03-15 08:21:14 51°16.353 2°53.047 8.2 4 7.4 101480 52
2011-03-15 08:21:19 51°16.37 2°53.034 6.1 5 7.4 101480 50
2011-03-15 08:21:24 51°16.386 2°53.021 7.8 3 7.4 101480 50
2011-03-15 08:21:29 51°16.403 2°53.007 8.2 5 7.4 101470 50
2011-03-15 08:21:34 51°16.419 2°52.994 6.1 5 7.4 101470 50
2011-03-15 08:21:39 51°16.435 2°52.981 6.2 5 7.3 101470 52
2011-03-15 08:21:44 51°16.452 2°52.968 6 3 7.3 101470 52
2011-03-15 08:21:49 51°16.468 2°52.955 6.3 4 7.4 101470 51
2011-03-15 08:21:54 51°16.485 2°52.942 8.1 2 7.4 101470 51
2011-03-15 08:21:59 51°16.501 2°52.929 6.8 5 7.4 101480 49
2011-03-15 08:22:04 51°16.518 2°52.916 6.7 7 7.4 101480 49
2011-03-15 08:22:09 51°16.534 2°52.903 8.1 6 7.3 101470 52
2011-03-15 08:22:14 51°16.551 2°52.89 8.3 2 7.3 101470 52
2011-03-15 08:22:19 51°16.567 2°52.878 9.1 4 7.3 101480 51
2011-03-15 08:22:24 51°16.584 2°52.865 6.1 4 7.3 101480 51
2011-03-15 08:22:29 51°16.6 2°52.853 7.7 4 7.3 101470 52
2011-03-15 08:22:34 51°16.617 2°52.839 8.1 4 7.3 101470 52
2011-03-15 08:22:39 51°16.633 2°52.827 7 2 7.3 101470 52
2011-03-15 08:22:44 51°16.65 2°52.814 8.3 3 7.3 101470 52
2011-03-15 08:22:49 51°16.666 2°52.801 6.7 3 7.3 101470 51
2011-03-15 08:22:54 51°16.682 2°52.788 8.3 2 7.3 101470 51
2011-03-15 08:22:59 51°16.699 2°52.774 8.3 2 7.3 101480 49
2011-03-15 08:23:04 51°16.715 2°52.761 8.6 2 7.3 101480 49
2011-03-15 08:23:09 51°16.731 2°52.749 7.5 4 7.3 101480 48
2011-03-15 08:23:14 51°16.748 2°52.735 8.4 4 7.3 101480 48
2011-03-15 08:23:19 51°16.764 2°52.722 5.9 2 7.3 101470 51
2011-03-15 08:23:24 51°16.78 2°52.709 7.6 4 7.3 101470 51
2011-03-15 08:23:29 51°16.796 2°52.696 7.4 3 7.3 101480 50
2011-03-15 08:23:34 51°16.812 2°52.683 6.2 4 7.3 101480 50
2011-03-15 08:23:39 51°16.829 2°52.67 9 2 7.3 101480 48
2011-03-15 08:23:44 51°16.845 2°52.657 8.9 4 7.3 101480 48
2011-03-15 08:23:49 51°16.861 2°52.644 8.3 2 7.3 101470 51
2011-03-15 08:23:54 51°16.877 2°52.632 6.3 1 7.3 101470 51
2011-03-15 08:23:59 51°16.894 2°52.619 6.5 4 7.3 101470 52
2011-03-15 08:24:04 51°16.91 2°52.607 6 3 7.3 101470 52
2011-03-15 08:24:09 51°16.927 2°52.595 7.9 4 7.2 101470 49
2011-03-15 08:24:14 51°16.944 2°52.583 6.4 2 7.2 101470 49
2011-03-15 08:24:19 51°16.96 2°52.57 8 2 7.2 101480 52
2011-03-15 08:24:24 51°16.977 2°52.558 8.2 3 7.2 101480 52
2011-03-15 08:24:29 51°16.993 2°52.546 6.3 2 7.3 101470 51
2011-03-15 08:24:34 51°17.01 2°52.534 7.3 4 7.3 101470 51
2011-03-15 08:24:39 51°17.026 2°52.522 8.2 1 7.3 101470 52
2011-03-15 08:24:44 51°17.043 2°52.51 8.2 1 7.3 101470 52
2011-03-15 08:24:49 51°17.06 2°52.498 8.6 1 7.3 101470 50
2011-03-15 08:24:54 51°17.076 2°52.486 8.1 -999 7.3 101470 50
2011-03-15 08:24:59 51°17.093 2°52.474 8.4 5 7.2 101480 49
2011-03-15 08:25:04 51°17.109 2°52.462 6.7 4 7.2 101480 49
2011-03-15 08:25:09 51°17.126 2°52.449 8 3 7.2 101470 51
2011-03-15 08:25:14 51°17.143 2°52.438 9.2 1 7.2 101470 51
2011-03-15 08:25:18 51°17.156 2°52.428 8.7 3 7.2 101470 51
2011-03-15 08:25:24 51°17.177 2°52.413 8.6 1 7.2 101470 51
2011-03-15 08:25:29 51°17.193 2°52.401 7.1 1 7.2 101480 49
2011-03-15 08:25:34 51°17.21 2°52.389 7.2 4 7.2 101480 49
2011-03-15 08:25:39 51°17.227 2°52.377 6.5 2 7.2 101480 50
2011-03-15 08:25:44 51°17.244 2°52.365 7.7 359 7.2 101480 50
2011-03-15 08:25:49 51°17.261 2°52.353 7.5 3 7.2 101470 51
2011-03-15 08:25:54 51°17.277 2°52.341 9.2 5 7.2 101470 51
2011-03-15 08:25:59 51°17.294 2°52.328 8.3 1 7.2 101470 51
2011-03-15 08:26:04 51°17.311 2°52.316 7.7 2 7.2 101470 51
2011-03-15 08:26:09 51°17.328 2°52.304 6.8 3 7.2 101480 49
2011-03-15 08:26:14 51°17.345 2°52.291 7.7 3 7.2 101480 49
2011-03-15 08:26:19 51°17.362 2°52.279 6.6 359 7.2 101480 50
2011-03-15 08:26:24 51°17.378 2°52.266 7.8 2 7.2 101480 50
2011-03-15 08:26:29 51°17.395 2°52.254 7.8 5 7.2 101470 50
2011-03-15 08:26:34 51°17.412 2°52.241 8.4 3 7.2 101470 50
2011-03-15 08:26:39 51°17.428 2°52.228 6.9 4 7.2 101470 51
2011-03-15 08:26:44 51°17.445 2°52.215 8.1 2 7.2 101470 51
2011-03-15 08:26:49 51°17.462 2°52.202 6.9 4 7.2 101480 49
2011-03-15 08:26:54 51°17.478 2°52.19 7.3 1 7.2 101480 49
2011-03-15 08:26:59 51°17.495 2°52.177 7.3 2 7.2 101470 51
2011-03-15 08:27:04 51°17.512 2°52.165 7.9 1 7.2 101470 51
2011-03-15 08:27:09 51°17.529 2°52.152 8.4 2 7.2 101470 49
2011-03-15 08:27:14 51°17.546 2°52.14 7.8 359 7.2 101470 49
2011-03-15 08:27:18 51°17.559 2°52.13 7.2 2 7.2 101480 49
2011-03-15 08:27:24 51°17.579 2°52.115 8.8 2 7.2 101480 49
2011-03-15 08:27:29 51°17.596 2°52.103 7.4 -999 7.2 101470 51
2011-03-15 08:27:34 51°17.613 2°52.091 7.7 358 7.2 101470 51
2011-03-15 08:27:38 51°17.626 2°52.081 6.8 4 7.2 101470 50
2011-03-15 08:27:44 51°17.646 2°52.066 7.3 359 7.2 101470 50
2011-03-15 08:27:49 51°17.663 2°52.054 8.7 358 7.2 101470 51
2011-03-15 08:27:54 51°17.68 2°52.042 8.9 360 7.2 101470 51
2011-03-15 08:27:59 51°17.696 2°52.029 7.9 1 7.1 101480 51
2011-03-15 08:28:04 51°17.713 2°52.017 9 360 7.1 101480 51
2011-03-15 08:28:09 51°17.73 2°52.005 7.4 360 7.1 101470 50
2011-03-15 08:28:14 51°17.746 2°51.992 8.6 1 7.1 101470 50
2011-03-15 08:28:19 51°17.763 2°51.98 8.6 3 7.1 101470 51
2011-03-15 08:28:24 51°17.779 2°51.968 8.9 1 7.1 101470 51
2011-03-15 08:28:29 51°17.796 2°51.955 8.4 -999 7.1 101470 51
2011-03-15 08:28:34 51°17.813 2°51.942 7.7 -999 7.1 101470 51
2011-03-15 08:28:39 51°17.829 2°51.93 8.7 357 7.1 101480 49
2011-03-15 08:28:44 51°17.846 2°51.918 7.7 1 7.1 101480 49
2011-03-15 08:28:49 51°17.862 2°51.906 8 2 7.1 101480 49
2011-03-15 08:28:54 51°17.879 2°51.893 9.2 360 7.1 101480 49
2011-03-15 08:28:59 51°17.895 2°51.881 8.4 360 7.1 101470 50
2011-03-15 08:29:04 51°17.912 2°51.869 8.3 1 7.1 101470 50
2011-03-15 08:29:09 51°17.929 2°51.857 9.5 359 7.1 101480 49
2011-03-15 08:29:14 51°17.945 2°51.845 7.9 1 7.1 101480 49
2011-03-15 08:29:19 51°17.962 2°51.833 7.2 3 7.1 101480 52
2011-03-15 08:29:24 51°17.979 2°51.821 8 2 7.1 101480 52
2011-03-15 08:29:29 51°17.995 2°51.809 7.4 3 7.1 101470 51
2011-03-15 08:29:34 51°18.012 2°51.797 8.4 2 7.1 101470 51
2011-03-15 08:29:39 51°18.028 2°51.785 8.3 5 7.1 101480 51
2011-03-15 08:29:44 51°18.045 2°51.773 7 359 7.1 101480 51
2011-03-15 08:29:49 51°18.062 2°51.76 8.7 360 7.1 101480 49
2011-03-15 08:29:54 51°18.078 2°51.748 8.3 2 7.1 101480 49
2011-03-15 08:29:59 51°18.095 2°51.735 7 360 7.1 101470 52
2011-03-15 08:30:04 51°18.112 2°51.723 7 2 7.1 101470 52
2011-03-15 08:30:09 51°18.128 2°51.711 8.6 1 7.1 101470 51
2011-03-15 08:30:14 51°18.144 2°51.698 8.8 359 7.1 101470 51
2011-03-15 08:30:19 51°18.161 2°51.686 8.4 1 7.1 101480 52
2011-03-15 08:30:24 51°18.178 2°51.673 8.8 -999 7.1 101480 52
2011-03-15 08:30:29 51°18.194 2°51.661 8.7 1 7.1 101480 51
2011-03-15 08:30:34 51°18.211 2°51.649 7.6 358 7.1 101480 51
2011-03-15 08:30:39 51°18.227 2°51.636 8.6 359 7.1 101470 50
2011-03-15 08:30:44 51°18.244 2°51.624 7.1 358 7.1 101470 50
2011-03-15 08:30:49 51°18.261 2°51.611 8.4 358 7.1 101480 49
2011-03-15 08:30:54 51°18.277 2°51.599 7.8 359 7.1 101480 49
2011-03-15 08:30:58 51°18.291 2°51.589 7.8 359 7 101480 49
2011-03-15 08:31:04 51°18.311 2°51.574 7.4 359 7 101480 49
2011-03-15 08:31:09 51°18.327 2°51.561 8.3 358 7 101480 51
2011-03-15 08:31:14 51°18.344 2°51.549 7.5 357 7 101480 51
2011-03-15 08:31:18 51°18.357 2°51.539 9.1 357 7 101480 49
2011-03-15 08:31:24 51°18.377 2°51.525 7.5 358 7 101480 49
2011-03-15 08:31:29 51°18.394 2°51.512 8.4 357 7 101470 49
2011-03-15 08:31:34 51°18.411 2°51.5 9 359 7 101470 49
2011-03-15 08:31:39 51°18.427 2°51.488 7.9 359 6.9 101480 49
2011-03-15 08:31:44 51°18.444 2°51.476 7.9 358 6.9 101480 49
2011-03-15 08:31:49 51°18.46 2°51.463 8 -999 6.9 101480 51
2011-03-15 08:31:54 51°18.477 2°51.451 8 359 6.9 101480 51
2011-03-15 08:31:59 51°18.494 2°51.439 7.5 359 6.9 101480 49
2011-03-15 08:32:04 51°18.511 2°51.427 7.8 358 6.9 101480 49
2011-03-15 08:32:09 51°18.528 2°51.414 8.2 359 6.9 101480 51
2011-03-15 08:32:14 51°18.544 2°51.402 7.3 359 6.9 101480 51
2011-03-15 08:32:19 51°18.561 2°51.39 8.3 357 6.9 101470 51
2011-03-15 08:32:24 51°18.577 2°51.377 8.2 -999 6.9 101470 51
2011-03-15 08:32:29 51°18.594 2°51.365 7.9 1 6.8 101480 51
2011-03-15 08:32:34 51°18.611 2°51.352 8 -999 6.8 101480 51
2011-03-15 08:32:39 51°18.627 2°51.34 8.6 1 6.8 101470 51
2011-03-15 08:32:44 51°18.644 2°51.327 8.4 -999 6.8 101470 51
2011-03-15 08:32:49 51°18.661 2°51.315 7.8 2 6.8 101480 50
2011-03-15 08:32:54 51°18.678 2°51.302 8.5 2 6.8 101480 50
2011-03-15 08:32:59 51°18.695 2°51.29 7.7 -999 6.8 101480 51
2011-03-15 08:33:04 51°18.711 2°51.277 7.2 3 6.8 101480 51
2011-03-15 08:33:09 51°18.728 2°51.265 6.8 359 6.8 101480 51
2011-03-15 08:33:14 51°18.745 2°51.253 8.8 359 6.8 101480 51
2011-03-15 08:33:19 51°18.762 2°51.24 8.6 2 6.8 101470 50
2011-03-15 08:33:24 51°18.779 2°51.228 7.9 1 6.8 101470 50
2011-03-15 08:33:29 51°18.796 2°51.216 9 1 6.8 101470 50
2011-03-15 08:33:34 51°18.813 2°51.204 7.9 1 6.8 101470 50
2011-03-15 08:33:39 51°18.83 2°51.192 7.2 2 6.8 101480 49
2011-03-15 08:33:44 51°18.847 2°51.18 8.4 2 6.8 101480 49
2011-03-15 08:33:49 51°18.864 2°51.167 7.6 2 6.7 101470 50
2011-03-15 08:33:54 51°18.88 2°51.155 8.8 2 6.7 101470 50
2011-03-15 08:33:58 51°18.894 2°51.145 8.6 1 6.7 101470 51
2011-03-15 08:34:04 51°18.914 2°51.13 8.1 1 6.7 101470 51
2011-03-15 08:34:09 51°18.931 2°51.117 7.8 2 6.7 101480 51
2011-03-15 08:34:14 51°18.947 2°51.105 7.2 2 6.7 101480 51
2011-03-15 08:34:18 51°18.961 2°51.095 8.7 1 6.7 101480 48
2011-03-15 08:34:24 51°18.981 2°51.08 6.8 1 6.7 101480 48
2011-03-15 08:34:29 51°18.998 2°51.068 9.1 2 6.7 101470 50
2011-03-15 08:34:34 51°19.015 2°51.055 7.3 1 6.7 101470 50
2011-03-15 08:34:39 51°19.032 2°51.043 6.9 4 6.7 101470 51
2011-03-15 08:34:44 51°19.049 2°51.03 7.9 3 6.7 101470 51
2011-03-15 08:34:49 51°19.066 2°51.018 7 2 6.7 101480 51
2011-03-15 08:34:54 51°19.083 2°51.005 7.2 3 6.7 101480 51
2011-03-15 08:34:59 51°19.099 2°50.992 6.9 2 6.7 101470 50
2011-03-15 08:35:04 51°19.116 2°50.98 7.5 2 6.7 101470 50
2011-03-15 08:35:09 51°19.133 2°50.967 7.6 360 6.7 101470 51
2011-03-15 08:35:14 51°19.15 2°50.954 7.1 2 6.7 101470 51
2011-03-15 08:35:19 51°19.167 2°50.941 8.1 360 6.7 101480 51
2011-03-15 08:35:24 51°19.183 2°50.928 8.7 -999 6.7 101480 51
2011-03-15 08:35:29 51°19.2 2°50.915 7.7 2 6.7 101460 49
2011-03-15 08:35:34 51°19.217 2°50.902 6.9 4 6.7 101460 49
2011-03-15 08:35:39 51°19.233 2°50.89 7.5 3 6.6 101470 51
2011-03-15 08:35:44 51°19.25 2°50.877 8.7 3 6.6 101470 51
2011-03-15 08:35:49 51°19.267 2°50.864 7.2 3 6.6 101480 51
2011-03-15 08:35:54 51°19.284 2°50.852 7.5 3 6.6 101480 51
2011-03-15 08:35:59 51°19.301 2°50.839 6.8 3 6.6 101470 51
2011-03-15 08:36:04 51°19.318 2°50.826 6.8 4 6.6 101470 51
2011-03-15 08:36:09 51°19.335 2°50.813 6.4 2 6.6 101470 51
2011-03-15 08:36:14 51°19.352 2°50.8 6.6 -999 6.6 101470 51
2011-03-15 08:36:19 51°19.368 2°50.787 8 2 6.6 101460 51
2011-03-15 08:36:24 51°19.385 2°50.774 9 1 6.6 101460 51
2011-03-15 08:36:29 51°19.402 2°50.761 7.1 1 6.6 101470 50
2011-03-15 08:36:34 51°19.419 2°50.748 7.8 4 6.6 101470 50
2011-03-15 08:36:39 51°19.436 2°50.735 7.6 2 6.6 101470 51
2011-03-15 08:36:44 51°19.453 2°50.722 6.9 4 6.6 101470 51
2011-03-15 08:36:49 51°19.47 2°50.709 7.2 -999 6.6 101480 51
2011-03-15 08:36:54 51°19.487 2°50.697 7.1 2 6.6 101480 51
2011-03-15 08:36:59 51°19.503 2°50.684 8 2 6.6 101470 50
2011-03-15 08:37:04 51°19.52 2°50.671 8.3 360 6.6 101470 50
2011-03-15 08:37:09 51°19.537 2°50.658 8.6 -999 6.5 101460 50
2011-03-15 08:37:14 51°19.554 2°50.646 8.2 1 6.5 101460 50
2011-03-15 08:37:19 51°19.571 2°50.633 8.3 -999 6.6 101470 51
2011-03-15 08:37:24 51°19.588 2°50.62 8.7 359 6.6 101470 51
2011-03-15 08:37:29 51°19.605 2°50.607 7.6 2 6.5 101470 49
2011-03-15 08:37:34 51°19.622 2°50.594 8.4 358 6.5 101470 49
2011-03-15 08:37:39 51°19.639 2°50.581 8.8 3 6.5 101460 49
2011-03-15 08:37:44 51°19.656 2°50.568 8.1 1 6.5 101460 49
2011-03-15 08:37:49 51°19.672 2°50.555 6.9 -999 6.5 101470 50
2011-03-15 08:37:54 51°19.689 2°50.543 8.8 358 6.5 101470 50
2011-03-15 08:37:59 51°19.706 2°50.53 8.7 1 6.5 101460 51
2011-03-15 08:38:04 51°19.723 2°50.517 7.5 359 6.5 101460 51
2011-03-15 08:38:09 51°19.74 2°50.504 7 -999 6.5 101470 51
2011-03-15 08:38:14 51°19.757 2°50.49 7.2 3 6.5 101470 51
2011-03-15 08:38:18 51°19.77 2°50.48 6.8 3 6.5 101470 50
2011-03-15 08:38:24 51°19.79 2°50.464 8.7 1 6.5 101470 50
2011-03-15 08:38:29 51°19.807 2°50.45 7.1 2 6.5 101470 50
2011-03-15 08:38:34 51°19.824 2°50.437 8 1 6.5 101470 50
2011-03-15 08:38:39 51°19.841 2°50.424 7.4 -999 6.5 101470 49
2011-03-15 08:38:44 51°19.857 2°50.411 7.9 1 6.5 101470 49
2011-03-15 08:38:49 51°19.874 2°50.397 8 1 6.5 101470 49
2011-03-15 08:38:54 51°19.89 2°50.384 9.1 1 6.5 101470 49
2011-03-15 08:38:59 51°19.907 2°50.371 8.6 360 6.5 101460 51
2011-03-15 08:39:04 51°19.923 2°50.357 8.3 -999 6.5 101460 51
2011-03-15 08:39:09 51°19.94 2°50.343 8.5 2 6.5 101470 49
2011-03-15 08:39:14 51°19.957 2°50.33 8.6 2 6.5 101470 49
2011-03-15 08:39:19 51°19.974 2°50.318 8.1 360 6.5 101460 50
2011-03-15 08:39:24 51°19.991 2°50.305 7 2 6.5 101460 50
2011-03-15 08:39:29 51°20.008 2°50.293 8.2 1 6.5 101470 50
2011-03-15 08:39:34 51°20.024 2°50.28 7.6 359 6.5 101470 50
2011-03-15 08:39:39 51°20.041 2°50.268 7.6 2 6.5 101470 50
2011-03-15 08:39:44 51°20.058 2°50.256 8.6 356 6.5 101470 50
2011-03-15 08:39:49 51°20.076 2°50.247 9.3 360 6.5 101470 49
2011-03-15 08:39:54 51°20.094 2°50.24 10.3 359 6.5 101470 49
2011-03-15 08:39:59 51°20.113 2°50.234 10.8 356 6.5 101470 51
2011-03-15 08:40:04 51°20.131 2°50.23 9.4 355 6.5 101470 51
2011-03-15 08:40:09 51°20.15 2°50.226 10.9 352 6.5 101460 49
2011-03-15 08:40:14 51°20.169 2°50.223 10.3 355 6.5 101460 49
2011-03-15 08:40:19 51°20.188 2°50.221 11.5 355 6.5 101460 51
2011-03-15 08:40:24 51°20.207 2°50.22 12.1 357 6.5 101460 51
2011-03-15 08:40:29 51°20.225 2°50.218 11.9 354 6.5 101460 50
2011-03-15 08:40:34 51°20.244 2°50.217 10.4 355 6.5 101460 50
2011-03-15 08:40:39 51°20.263 2°50.216 11.2 354 6.5 101450 51
2011-03-15 08:40:44 51°20.282 2°50.215 10.5 352 6.5 101450 51
2011-03-15 08:40:49 51°20.302 2°50.214 11.9 352 6.5 101450 51
2011-03-15 08:40:54 51°20.321 2°50.214 10.7 352 6.5 101450 51
2011-03-15 08:40:59 51°20.339 2°50.214 10.4 353 6.5 101450 50
2011-03-15 08:41:04 51°20.358 2°50.213 12.2 354 6.5 101450 50
2011-03-15 08:41:09 51°20.377 2°50.212 11.4 355 6.5 101460 50
2011-03-15 08:41:14 51°20.396 2°50.211 12.3 355 6.5 101460 50
2011-03-15 08:41:19 51°20.415 2°50.211 9.9 355 6.5 101450 51
2011-03-15 08:41:24 51°20.434 2°50.21 11.3 356 6.5 101450 51
2011-03-15 08:41:29 51°20.453 2°50.208 11.7 356 6.5 101460 51
2011-03-15 08:41:34 51°20.472 2°50.208 10.1 355 6.5 101460 51
2011-03-15 08:41:39 51°20.491 2°50.207 9.8 356 6.5 101450 50
2011-03-15 08:41:44 51°20.51 2°50.206 11.5 355 6.5 101450 50
2011-03-15 08:41:49 51°20.529 2°50.205 11.5 355 6.5 101470 51
2011-03-15 08:41:54 51°20.548 2°50.205 11.5 355 6.5 101470 51
2011-03-15 08:41:58 51°20.563 2°50.204 11.1 356 6.5 101460 51
2011-03-15 08:42:04 51°20.586 2°50.203 11 354 6.5 101460 51
2011-03-15 08:42:09 51°20.605 2°50.201 10.5 355 6.5 101460 51
2011-03-15 08:42:14 51°20.624 2°50.2 11.4 357 6.5 101460 51
2011-03-15 08:42:19 51°20.643 2°50.199 11.1 357 6.5 101450 49
2011-03-15 08:42:24 51°20.662 2°50.198 11.9 356 6.5 101450 49
2011-03-15 08:42:29 51°20.681 2°50.198 11.2 355 6.5 101460 51
2011-03-15 08:42:34 51°20.7 2°50.197 10.8 353 6.5 101460 51
2011-03-15 08:42:39 51°20.719 2°50.196 10.6 356 6.5 101450 51
2011-03-15 08:42:44 51°20.738 2°50.194 11.4 357 6.5 101450 51
2011-03-15 08:42:49 51°20.757 2°50.193 11.7 354 6.5 101450 50
2011-03-15 08:42:54 51°20.776 2°50.193 10.4 354 6.5 101450 50
2011-03-15 08:42:59 51°20.795 2°50.193 10.4 356 6.5 101450 50
2011-03-15 08:43:04 51°20.814 2°50.192 10.8 356 6.5 101450 50
2011-03-15 08:43:09 51°20.833 2°50.192 10.8 354 6.5 101440 51
2011-03-15 08:43:14 51°20.852 2°50.192 12.1 356 6.5 101440 51
2011-03-15 08:43:19 51°20.871 2°50.192 11.3 353 6.6 101450 51
2011-03-15 08:43:24 51°20.891 2°50.192 12.3 355 6.6 101450 51
2011-03-15 08:43:29 51°20.91 2°50.192 10.7 354 6.6 101450 49
2011-03-15 08:43:34 51°20.929 2°50.192 11.1 356 6.6 101450 49
2011-03-15 08:43:39 51°20.948 2°50.191 12.3 357 6.6 101440 51
2011-03-15 08:43:44 51°20.967 2°50.191 12.3 356 6.6 101440 51
2011-03-15 08:43:49 51°20.986 2°50.191 11.5 357 6.6 101450 51
2011-03-15 08:43:54 51°21.006 2°50.191 11.2 356 6.6 101450 51
2011-03-15 08:43:58 51°21.021 2°50.19 11.8 354 6.6 101450 49
2011-03-15 08:44:04 51°21.043 2°50.19 11.3 357 6.6 101450 49
2011-03-15 08:44:09 51°21.062 2°50.189 12.7 359 6.6 101450 49
2011-03-15 08:44:14 51°21.081 2°50.188 10.7 357 6.6 101450 49
2011-03-15 08:44:18 51°21.096 2°50.188 12.6 357 6.6 101440 50
2011-03-15 08:44:24 51°21.119 2°50.187 11.7 355 6.6 101440 50
2011-03-15 08:44:29 51°21.138 2°50.187 11 355 6.6 101460 51
2011-03-15 08:44:34 51°21.157 2°50.186 12.3 359 6.6 101460 51
2011-03-15 08:44:39 51°21.176 2°50.186 12.1 358 6.6 101450 49
2011-03-15 08:44:44 51°21.195 2°50.183 10.3 360 6.6 101450 49
2011-03-15 08:44:49 51°21.214 2°50.18 10.6 359 6.6 101450 50
2011-03-15 08:44:54 51°21.233 2°50.176 11.9 359 6.6 101450 50
2011-03-15 08:44:59 51°21.251 2°50.17 10.7 2 6.6 101450 49
2011-03-15 08:45:04 51°21.27 2°50.163 9.6 2 6.6 101450 49
2011-03-15 08:45:09 51°21.288 2°50.155 9.7 4 6.6 101450 51
2011-03-15 08:45:14 51°21.306 2°50.147 8.5 3 6.6 101450 51
2011-03-15 08:45:18 51°21.32 2°50.139 8.1 4 6.6 101460 51
2011-03-15 08:45:24 51°21.341 2°50.127 9.8 7 6.6 101460 51
2011-03-15 08:45:29 51°21.358 2°50.115 9.4 6 6.6 101450 51
2011-03-15 08:45:34 51°21.375 2°50.103 9.6 8 6.6 101450 51
2011-03-15 08:45:39 51°21.392 2°50.091 8.9 6 6.6 101440 49
2011-03-15 08:45:44 51°21.409 2°50.077 9.6 8 6.6 101440 49
2011-03-15 08:45:49 51°21.426 2°50.063 7.3 9 6.6 101460 51
2011-03-15 08:45:54 51°21.441 2°50.049 9.4 9 6.6 101460 51
2011-03-15 08:45:59 51°21.458 2°50.034 8.2 7 6.6 101470 51
2011-03-15 08:46:04 51°21.473 2°50.019 7.7 6 6.6 101470 51
2011-03-15 08:46:09 51°21.489 2°50.003 8.1 8 6.6 101460 50
2011-03-15 08:46:14 51°21.505 2°49.988 9.6 9 6.6 101460 50
2011-03-15 08:46:19 51°21.52 2°49.971 7.6 7 6.6 101470 49
2011-03-15 08:46:24 51°21.536 2°49.955 7.3 9 6.6 101470 49
2011-03-15 08:46:29 51°21.551 2°49.938 7.9 10 6.6 101470 51
2011-03-15 08:46:34 51°21.567 2°49.921 6.8 9 6.6 101470 51
2011-03-15 08:46:38 51°21.578 2°49.907 7.8 9 6.6 101470 51
2011-03-15 08:46:44 51°21.596 2°49.886 7.7 9 6.6 101470 51
2011-03-15 08:46:49 51°21.611 2°49.869 7 8 6.6 101470 51
2011-03-15 08:46:54 51°21.626 2°49.852 9.6 11 6.6 101470 51
2011-03-15 08:46:59 51°21.641 2°49.835 6.8 7 6.6 101470 52
2011-03-15 08:47:04 51°21.657 2°49.818 6.8 8 6.6 101470 52
2011-03-15 08:47:09 51°21.672 2°49.802 7.7 13 6.6 101470 52
2011-03-15 08:47:14 51°21.687 2°49.785 8.8 9 6.6 101470 52
2011-03-15 08:47:19 51°21.703 2°49.768 7.9 8 6.6 101470 51
2011-03-15 08:47:24 51°21.718 2°49.751 7.7 8 6.6 101470 51
2011-03-15 08:47:29 51°21.733 2°49.734 9.1 13 6.6 101470 51
2011-03-15 08:47:34 51°21.749 2°49.717 7.4 11 6.6 101470 51
2011-03-15 08:47:39 51°21.764 2°49.7 8.5 8 6.6 101470 51
2011-03-15 08:47:44 51°21.779 2°49.683 8.2 11 6.6 101470 51
2011-03-15 08:47:49 51°21.794 2°49.665 9 10 6.6 101470 49
2011-03-15 08:47:54 51°21.808 2°49.647 9 12 6.6 101470 49
2011-03-15 08:47:59 51°21.822 2°49.628 7 14 6.6 101470 52
2011-03-15 08:48:04 51°21.837 2°49.609 7.1 12 6.6 101470 52
2011-03-15 08:48:09 51°21.85 2°49.589 7.9 11 6.6 101470 50
2011-03-15 08:48:14 51°21.864 2°49.57 6.7 15 6.6 101470 50
2011-03-15 08:48:19 51°21.877 2°49.549 8.3 12 6.6 101470 51
2011-03-15 08:48:24 51°21.891 2°49.529 6.5 13 6.6 101470 51
2011-03-15 08:48:29 51°21.904 2°49.508 6.7 12 6.6 101470 52
2011-03-15 08:48:34 51°21.917 2°49.488 7.3 17 6.6 101470 52
2011-03-15 08:48:38 51°21.927 2°49.471 6.8 14 6.6 101470 49
2011-03-15 08:48:44 51°21.943 2°49.447 6.5 17 6.6 101470 49
2011-03-15 08:48:49 51°21.956 2°49.426 7.5 17 6.6 101470 51
2011-03-15 08:48:54 51°21.969 2°49.406 6.5 12 6.6 101470 51
2011-03-15 08:48:58 51°21.98 2°49.389 7.3 14 6.6 101470 50
2011-03-15 08:49:04 51°21.995 2°49.364 6.9 17 6.6 101470 50
2011-03-15 08:49:09 51°22.009 2°49.344 6.5 17 6.6 101470 52
2011-03-15 08:49:14 51°22.022 2°49.323 6.5 15 6.6 101470 52
2011-03-15 08:49:19 51°22.035 2°49.303 6.7 16 6.7 101470 49
2011-03-15 08:49:24 51°22.048 2°49.282 6.4 19 6.7 101470 49
2011-03-15 08:49:29 51°22.061 2°49.261 7.6 13 6.6 101470 49
2011-03-15 08:49:34 51°22.074 2°49.24 6.7 12 6.6 101470 49
2011-03-15 08:49:39 51°22.086 2°49.219 7.2 19 6.7 101480 51
2011-03-15 08:49:44 51°22.099 2°49.198 7.9 14 6.7 101480 51
2011-03-15 08:49:49 51°22.112 2°49.177 6.4 16 6.7 101480 50
2011-03-15 08:49:54 51°22.126 2°49.157 7.2 11 6.7 101480 50
2011-03-15 08:49:58 51°22.136 2°49.14 7.1 9 6.7 101480 52
2011-03-15 08:50:04 51°22.152 2°49.116 7.2 16 6.7 101480 52
2011-03-15 08:50:09 51°22.165 2°49.095 6.5 20 6.7 101470 50
2011-03-15 08:50:14 51°22.178 2°49.073 7.8 17 6.7 101470 50
2011-03-15 08:50:19 51°22.19 2°49.052 7 22 6.7 101480 50
2011-03-15 08:50:24 51°22.202 2°49.03 5.3 16 6.7 101480 50
2011-03-15 08:50:29 51°22.214 2°49.008 6.2 17 6.7 101470 49
2011-03-15 08:50:34 51°22.226 2°48.986 4.5 15 6.7 101470 49
2011-03-15 08:50:39 51°22.237 2°48.963 5.8 18 6.7 101470 49
2011-03-15 08:50:44 51°22.25 2°48.941 5.1 21 6.7 101470 49
2011-03-15 08:50:49 51°22.261 2°48.918 5.7 17 6.7 101480 52
2011-03-15 08:50:54 51°22.273 2°48.896 5.1 15 6.7 101480 52
2011-03-15 08:50:59 51°22.285 2°48.873 5.2 14 6.7 101480 50
2011-03-15 08:51:04 51°22.297 2°48.851 5 16 6.7 101480 50
2011-03-15 08:51:09 51°22.308 2°48.828 4.1 18 6.7 101480 50
2011-03-15 08:51:14 51°22.318 2°48.805 5.7 19 6.7 101480 50
2011-03-15 08:51:19 51°22.328 2°48.781 4.7 25 6.7 101480 49
2011-03-15 08:51:24 51°22.338 2°48.756 5 23 6.7 101480 49
2011-03-15 08:51:29 51°22.347 2°48.732 3.6 25 6.7 101480 49
2011-03-15 08:51:34 51°22.356 2°48.707 3.8 21 6.7 101480 49
2011-03-15 08:51:39 51°22.365 2°48.683 2.7 22 6.7 101480 52
2011-03-15 08:51:44 51°22.374 2°48.657 4.7 26 6.7 101480 52
2011-03-15 08:51:49 51°22.383 2°48.632 4 19 6.7 101480 52
2011-03-15 08:51:54 51°22.392 2°48.607 3.8 18 6.7 101480 52
2011-03-15 08:51:58 51°22.4 2°48.588 2.9 25 6.7 101480 52
2011-03-15 08:52:04 51°22.411 2°48.558 3.6 15 6.7 101480 52
2011-03-15 08:52:09 51°22.42 2°48.533 4.3 17 6.7 101490 52
2011-03-15 08:52:14 51°22.429 2°48.509 4.8 21 6.7 101490 52
2011-03-15 08:52:18 51°22.436 2°48.49 5.3 20 6.7 101480 52
2011-03-15 08:52:24 51°22.447 2°48.461 2.9 23 6.7 101480 52
2011-03-15 08:52:29 51°22.456 2°48.436 4.2 20 6.7 101490 52
2011-03-15 08:52:34 51°22.465 2°48.412 5.3 29 6.7 101490 52
2011-03-15 08:52:39 51°22.474 2°48.387 4.5 23 6.7 101480 52
2011-03-15 08:52:44 51°22.483 2°48.363 5.4 26 6.7 101480 52
2011-03-15 08:52:49 51°22.492 2°48.339 4.4 28 6.7 101470 49
2011-03-15 08:52:54 51°22.502 2°48.315 3.6 17 6.7 101470 49
2011-03-15 08:52:59 51°22.511 2°48.291 4.3 23 6.7 101470 48
2011-03-15 08:53:04 51°22.521 2°48.267 4 22 6.7 101470 48
2011-03-15 08:53:09 51°22.531 2°48.243 4.9 19 6.7 101480 50
2011-03-15 08:53:14 51°22.54 2°48.218 5.1 24 6.7 101480 50
2011-03-15 08:53:18 51°22.548 2°48.199 5 27 6.7 101480 53
2011-03-15 08:53:24 51°22.559 2°48.171 3.7 23 6.7 101480 53
2011-03-15 08:53:29 51°22.569 2°48.147 4 22 6.7 101480 50
2011-03-15 08:53:34 51°22.578 2°48.123 4 22 6.7 101480 50
2011-03-15 08:53:39 51°22.588 2°48.099 4.5 20 6.7 101480 49
2011-03-15 08:53:44 51°22.597 2°48.075 4.2 17 6.7 101480 49
2011-03-15 08:53:49 51°22.606 2°48.051 4.2 26 6.7 101480 51
2011-03-15 08:53:54 51°22.615 2°48.026 3.5 22 6.7 101480 51
2011-03-15 08:53:59 51°22.624 2°48.002 3.9 17 6.7 101480 49
2011-03-15 08:54:04 51°22.634 2°47.978 5.3 22 6.7 101480 49
2011-03-15 08:54:09 51°22.643 2°47.954 3.1 16 6.7 101480 52
2011-03-15 08:54:14 51°22.653 2°47.93 3.9 23 6.7 101480 52
2011-03-15 08:54:19 51°22.662 2°47.905 3.5 22 6.7 101480 49
2011-03-15 08:54:24 51°22.671 2°47.881 5.1 22 6.7 101480 49
2011-03-15 08:54:29 51°22.68 2°47.857 0.8 17 6.7 101480 49
2011-03-15 08:54:34 51°22.689 2°47.833 0.1 26 6.7 101480 49
2011-03-15 08:54:39 51°22.698 2°47.808 0.1 23 6.7 101470 49
2011-03-15 08:54:44 51°22.707 2°47.784 -999 29 6.7 101470 49
2011-03-15 08:54:49 51°22.716 2°47.759 -999 22 6.7 101480 50
2011-03-15 08:54:54 51°22.725 2°47.736 -999 21 6.7 101480 50
2011-03-15 08:54:59 51°22.734 2°47.711 -999 22 6.7 101480 51
2011-03-15 08:55:04 51°22.744 2°47.687 3 19 6.7 101480 51
2011-03-15 08:55:09 51°22.753 2°47.662 3.9 19 6.7 101470 51
2011-03-15 08:55:14 51°22.763 2°47.638 3.8 20 6.7 101470 51
2011-03-15 08:55:19 51°22.772 2°47.613 3.9 22 6.7 101480 51
2011-03-15 08:55:24 51°22.781 2°47.589 0.9 20 6.7 101480 51
2011-03-15 08:55:29 51°22.789 2°47.564 3.4 24 6.7 101480 52
2011-03-15 08:55:34 51°22.797 2°47.539 2.1 24 6.7 101480 52
2011-03-15 08:55:39 51°22.806 2°47.514 3.4 25 6.7 101470 51
2011-03-15 08:55:44 51°22.813 2°47.489 2.4 22 6.7 101470 51
2011-03-15 08:55:49 51°22.821 2°47.464 3.7 32 6.7 101480 52
2011-03-15 08:55:54 51°22.829 2°47.438 2.3 18 6.7 101480 52
2011-03-15 08:55:59 51°22.837 2°47.413 2.7 21 6.7 101480 49
2011-03-15 08:56:04 51°22.845 2°47.388 3.3 22 6.7 101480 49
2011-03-15 08:56:09 51°22.853 2°47.364 3.5 26 6.7 101490 52
2011-03-15 08:56:14 51°22.862 2°47.339 2.5 22 6.7 101490 52
2011-03-15 08:56:18 51°22.868 2°47.318 2.4 23 6.7 101480 52
2011-03-15 08:56:24 51°22.878 2°47.288 2.4 21 6.7 101480 52
2011-03-15 08:56:29 51°22.886 2°47.263 3.1 20 6.7 101490 49
2011-03-15 08:56:34 51°22.894 2°47.238 2.9 24 6.7 101490 49
2011-03-15 08:56:39 51°22.901 2°47.212 3.1 28 6.7 101480 52
2011-03-15 08:56:44 51°22.909 2°47.187 3.2 21 6.7 101480 52
2011-03-15 08:56:49 51°22.917 2°47.162 2.6 25 6.7 101480 52
2011-03-15 08:56:54 51°22.925 2°47.137 3.2 24 6.7 101480 52
2011-03-15 08:56:59 51°22.932 2°47.112 2.6 29 6.7 101480 49
2011-03-15 08:57:04 51°22.941 2°47.087 3.4 24 6.7 101480 49
2011-03-15 08:57:09 51°22.949 2°47.062 2.7 25 6.7 101480 49
2011-03-15 08:57:14 51°22.957 2°47.037 2.9 20 6.7 101480 49
2011-03-15 08:57:19 51°22.965 2°47.012 2.8 27 6.8 101480 50
2011-03-15 08:57:24 51°22.973 2°46.986 3.5 25 6.8 101480 50
2011-03-15 08:57:29 51°22.981 2°46.961 1.9 21 6.7 101490 50
2011-03-15 08:57:34 51°22.989 2°46.936 4.4 25 6.7 101490 50
2011-03-15 08:57:38 51°22.995 2°46.916 4.2 23 6.7 101490 52
2011-03-15 08:57:44 51°23.005 2°46.886 3 21 6.7 101490 52
2011-03-15 08:57:49 51°23.013 2°46.86 2.3 17 6.8 101490 52
2011-03-15 08:57:54 51°23.021 2°46.835 3.1 23 6.8 101490 52
2011-03-15 08:57:58 51°23.028 2°46.815 3 18 6.8 101490 49
2011-03-15 08:58:04 51°23.038 2°46.786 4.6 22 6.8 101490 49
2011-03-15 08:58:09 51°23.047 2°46.762 3.7 23 6.7 101480 52
2011-03-15 08:58:14 51°23.056 2°46.737 3.2 25 6.7 101480 52
2011-03-15 08:58:19 51°23.064 2°46.713 3.6 27 6.8 101490 50
2011-03-15 08:58:24 51°23.074 2°46.689 3 23 6.8 101490 50
2011-03-15 08:58:29 51°23.082 2°46.664 3.4 25 6.7 101480 52
2011-03-15 08:58:34 51°23.092 2°46.64 3.3 26 6.7 101480 52
2011-03-15 08:58:39 51°23.1 2°46.616 4.3 25 6.7 101480 49
2011-03-15 08:58:44 51°23.11 2°46.592 2.1 19 6.7 101480 49
2011-03-15 08:58:49 51°23.118 2°46.567 2.4 24 6.8 101480 53
2011-03-15 08:58:54 51°23.127 2°46.542 3.9 21 6.8 101480 53
2011-03-15 08:58:58 51°23.135 2°46.523 3.5 22 6.8 101490 52
2011-03-15 08:59:04 51°23.145 2°46.493 4 26 6.8 101490 52
2011-03-15 08:59:09 51°23.154 2°46.468 4.3 24 6.8 101480 52
2011-03-15 08:59:14 51°23.163 2°46.443 3.2 18 6.8 101480 52
2011-03-15 08:59:19 51°23.172 2°46.419 2.7 22 6.8 101490 50
2011-03-15 08:59:24 51°23.181 2°46.394 4.3 22 6.8 101490 50
2011-03-15 08:59:29 51°23.19 2°46.37 4.5 19 6.8 101480 52
2011-03-15 08:59:34 51°23.199 2°46.345 3.3 22 6.8 101480 52
2011-03-15 08:59:39 51°23.208 2°46.321 2.9 23 6.8 101490 52
2011-03-15 08:59:44 51°23.217 2°46.296 3.3 22 6.8 101490 52
2011-03-15 08:59:49 51°23.226 2°46.272 3 22 6.8 101480 50
2011-03-15 08:59:54 51°23.235 2°46.247 2.9 21 6.8 101480 50
2011-03-15 08:59:59 51°23.244 2°46.222 2.7 24 6.8 101480 50
2011-03-15 09:00:04 51°23.253 2°46.197 2.9 26 6.8 101480 50
2011-03-15 09:00:09 51°23.262 2°46.173 3.2 17 6.8 101490 49
2011-03-15 09:00:14 51°23.271 2°46.148 3 17 6.8 101490 49
2011-03-15 09:00:19 51°23.28 2°46.123 2.7 20 6.8 101480 52
2011-03-15 09:00:24 51°23.289 2°46.099 2.6 25 6.8 101480 52
2011-03-15 09:00:29 51°23.298 2°46.074 3.1 21 6.8 101480 53
2011-03-15 09:00:34 51°23.307 2°46.05 2 22 6.8 101480 53
2011-03-15 09:00:39 51°23.316 2°46.025 3.1 23 6.8 101490 53
2011-03-15 09:00:44 51°23.325 2°46.001 2.9 22 6.8 101490 53
2011-03-15 09:00:49 51°23.334 2°45.976 2.1 26 6.8 101480 50
2011-03-15 09:00:54 51°23.343 2°45.952 3 17 6.8 101480 50
2011-03-15 09:00:59 51°23.353 2°45.927 2.6 17 6.8 101490 48
2011-03-15 09:01:04 51°23.362 2°45.902 1.2 18 6.8 101490 48
2011-03-15 09:01:09 51°23.371 2°45.877 3.2 25 6.8 101480 53
2011-03-15 09:01:14 51°23.38 2°45.852 2.1 20 6.8 101480 53
2011-03-15 09:01:19 51°23.389 2°45.828 2.2 18 6.8 101490 49
2011-03-15 09:01:24 51°23.398 2°45.803 3 21 6.8 101490 49
2011-03-15 09:01:29 51°23.408 2°45.778 3.5 18 6.8 101490 53
2011-03-15 09:01:34 51°23.416 2°45.753 2.7 19 6.8 101490 53
2011-03-15 09:01:39 51°23.425 2°45.728 2.6 20 6.8 101490 50
2011-03-15 09:01:44 51°23.434 2°45.704 2.4 20 6.8 101490 50
2011-03-15 09:01:49 51°23.443 2°45.679 2.4 25 6.8 101490 50
2011-03-15 09:01:54 51°23.452 2°45.654 3 20 6.8 101490 50
2011-03-15 09:01:59 51°23.461 2°45.629 3.2 17 6.8 101490 49
2011-03-15 09:02:04 51°23.47 2°45.604 3.3 25 6.8 101490 49
2011-03-15 09:02:09 51°23.479 2°45.58 2.2 19 6.8 101500 52
2011-03-15 09:02:14 51°23.488 2°45.555 3.1 21 6.8 101500 52
2011-03-15 09:02:19 51°23.497 2°45.53 2.4 28 6.8 101490 53
2011-03-15 09:02:24 51°23.506 2°45.505 2.7 24 6.8 101490 53
2011-03-15 09:02:29 51°23.515 2°45.48 2.4 21 6.8 101490 51
2011-03-15 09:02:34 51°23.524 2°45.455 3.4 18 6.8 101490 51
2011-03-15 09:02:38 51°23.531 2°45.435 2.6 21 6.8 101480 53
2011-03-15 09:02:44 51°23.542 2°45.405 3.2 21 6.8 101480 53
2011-03-15 09:02:49 51°23.551 2°45.38 3.3 16 6.8 101490 49
2011-03-15 09:02:54 51°23.56 2°45.356 3.5 22 6.8 101490 49
2011-03-15 09:02:59 51°23.57 2°45.332 3.3 18 6.8 101480 49
2011-03-15 09:03:04 51°23.58 2°45.307 3.5 16 6.8 101480 49
2011-03-15 09:03:09 51°23.591 2°45.284 3.8 20 6.8 101490 52
2011-03-15 09:03:14 51°23.601 2°45.26 3.4 24 6.8 101490 52
2011-03-15 09:03:19 51°23.61 2°45.236 3 21 6.8 101490 51
2011-03-15 09:03:24 51°23.621 2°45.212 4.2 23 6.8 101490 51
2011-03-15 09:03:29 51°23.631 2°45.188 3.1 21 6.8 101490 49
2011-03-15 09:03:34 51°23.641 2°45.164 4.8 20 6.8 101490 49
2011-03-15 09:03:39 51°23.651 2°45.14 3.5 21 6.8 101480 48
2011-03-15 09:03:44 51°23.661 2°45.116 4.9 24 6.8 101480 48
2011-03-15 09:03:49 51°23.671 2°45.092 3.3 14 6.8 101490 49
2011-03-15 09:03:54 51°23.681 2°45.068 4.7 16 6.8 101490 49
2011-03-15 09:03:59 51°23.691 2°45.044 3.9 15 6.8 101500 49
2011-03-15 09:04:04 51°23.701 2°45.02 5 25 6.8 101500 49
2011-03-15 09:04:09 51°23.711 2°44.996 4.9 26 6.8 101490 50
2011-03-15 09:04:14 51°23.721 2°44.971 3.1 19 6.8 101490 50
2011-03-15 09:04:19 51°23.731 2°44.947 4.1 17 6.8 101490 52
2011-03-15 09:04:24 51°23.74 2°44.922 3.8 18 6.8 101490 52
2011-03-15 09:04:29 51°23.75 2°44.899 4 26 6.8 101490 52
2011-03-15 09:04:34 51°23.76 2°44.875 3 23 6.8 101490 52
2011-03-15 09:04:38 51°23.768 2°44.856 3.5 22 6.8 101490 49
2011-03-15 09:04:44 51°23.78 2°44.827 3.3 20 6.8 101490 49
2011-03-15 09:04:49 51°23.79 2°44.802 3.2 20 6.9 101490 49
2011-03-15 09:04:54 51°23.799 2°44.778 3.1 16 6.9 101490 49
2011-03-15 09:04:58 51°23.808 2°44.759 3.5 19 6.9 101490 52
2011-03-15 09:05:04 51°23.819 2°44.729 5.2 21 6.9 101490 52
2011-03-15 09:05:09 51°23.829 2°44.705 4 20 6.9 101490 52
2011-03-15 09:05:14 51°23.838 2°44.681 4.8 26 6.9 101490 52
2011-03-15 09:05:19 51°23.848 2°44.656 4 29 6.9 101490 52
2011-03-15 09:05:24 51°23.857 2°44.631 3.1 26 6.9 101490 52
2011-03-15 09:05:29 51°23.865 2°44.606 2.8 24 6.9 101490 53
2011-03-15 09:05:34 51°23.873 2°44.581 3.7 25 6.9 101490 53
2011-03-15 09:05:39 51°23.882 2°44.555 3.8 22 6.9 101490 52
2011-03-15 09:05:44 51°23.89 2°44.53 2.7 21 6.9 101490 52
2011-03-15 09:05:49 51°23.898 2°44.505 3.3 20 6.9 101500 51
2011-03-15 09:05:54 51°23.906 2°44.48 3.9 23 6.9 101500 51
2011-03-15 09:05:58 51°23.913 2°44.459 3.9 22 6.9 101490 49
2011-03-15 09:06:04 51°23.923 2°44.429 2.5 26 6.9 101490 49
2011-03-15 09:06:09 51°23.931 2°44.404 3.6 23 6.9 101500 50
2011-03-15 09:06:14 51°23.94 2°44.379 2.9 22 6.9 101500 50
2011-03-15 09:06:19 51°23.948 2°44.354 2.9 21 6.9 101490 51
2011-03-15 09:06:24 51°23.957 2°44.328 3.6 27 6.9 101490 51
2011-03-15 09:06:29 51°23.965 2°44.303 3.2 23 6.9 101500 53
2011-03-15 09:06:34 51°23.974 2°44.278 3 22 6.9 101500 53
2011-03-15 09:06:39 51°23.982 2°44.253 4.3 22 6.9 101490 49
2011-03-15 09:06:44 51°23.991 2°44.228 2.7 21 6.9 101490 49
2011-03-15 09:06:49 51°23.999 2°44.203 2.6 20 6.9 101500 49
2011-03-15 09:06:54 51°24.008 2°44.178 2.9 27 6.9 101500 49
2011-03-15 09:06:59 51°24.016 2°44.153 4 20 6.9 101490 49
2011-03-15 09:07:04 51°24.024 2°44.129 3.4 25 6.9 101490 49
2011-03-15 09:07:09 51°24.032 2°44.103 4.2 28 6.9 101500 50
2011-03-15 09:07:14 51°24.041 2°44.078 2.6 22 6.9 101500 50
2011-03-15 09:07:19 51°24.05 2°44.054 3.4 21 6.9 101500 53
2011-03-15 09:07:24 51°24.06 2°44.03 4.5 17 6.9 101500 53
2011-03-15 09:07:29 51°24.071 2°44.007 4.8 16 6.9 101500 49
2011-03-15 09:07:34 51°24.083 2°43.985 5.8 19 6.9 101500 49
2011-03-15 09:07:39 51°24.094 2°43.963 5.2 20 6.9 101500 49
2011-03-15 09:07:44 51°24.106 2°43.942 4.9 17 6.9 101500 49
2011-03-15 09:07:49 51°24.118 2°43.92 4.7 17 6.9 101500 53
2011-03-15 09:07:54 51°24.131 2°43.899 5.1 16 6.9 101500 53
2011-03-15 09:07:59 51°24.143 2°43.878 6.7 12 6.9 101490 52
2011-03-15 09:08:04 51°24.157 2°43.857 6.3 14 6.9 101490 52
2011-03-15 09:08:09 51°24.17 2°43.838 7 12 6.9 101490 49
2011-03-15 09:08:14 51°24.185 2°43.82 6.2 17 6.9 101490 49
2011-03-15 09:08:19 51°24.199 2°43.801 6 13 6.9 101490 52
2011-03-15 09:08:24 51°24.213 2°43.783 8.6 12 6.9 101490 52
2011-03-15 09:08:29 51°24.229 2°43.767 3.5 11 6.9 101480 49
2011-03-15 09:08:34 51°24.245 2°43.753 8.3 9 6.9 101480 49
2011-03-15 09:08:39 51°24.262 2°43.74 10.3 8 6.9 101490 52
2011-03-15 09:08:44 51°24.279 2°43.729 7.8 8 6.9 101490 52
2011-03-15 09:08:49 51°24.297 2°43.718 10.3 8 6.9 101480 52
2011-03-15 09:08:54 51°24.314 2°43.709 9.2 8 6.9 101480 52
2011-03-15 09:08:59 51°24.33 2°43.701 8.6 9 6.9 101480 49
2011-03-15 09:09:04 51°24.344 2°43.695 8.3 11 6.9 101480 49
2011-03-15 09:09:09 51°24.358 2°43.69 8.6 9 6.9 101470 49
2011-03-15 09:09:14 51°24.37 2°43.687 10.4 9 6.9 101470 49
2011-03-15 09:09:19 51°24.382 2°43.684 9.7 8 6.9 101490 52
2011-03-15 09:09:24 51°24.393 2°43.683 9.2 8 6.9 101490 52
2011-03-15 09:09:29 51°24.404 2°43.682 8.3 8 6.9 101480 50
2011-03-15 09:09:34 51°24.414 2°43.681 7.9 8 6.9 101480 50
2011-03-15 09:09:39 51°24.423 2°43.68 8.3 8 6.9 101490 51
2011-03-15 09:09:44 51°24.432 2°43.681 8 13 6.9 101490 51
2011-03-15 09:09:49 51°24.441 2°43.681 8.8 8 6.9 101490 51
2011-03-15 09:09:54 51°24.449 2°43.681 7.9 9 6.9 101490 51
2011-03-15 09:09:59 51°24.457 2°43.682 9.2 8 6.9 101500 50
2011-03-15 09:10:04 51°24.465 2°43.682 10.1 10 6.9 101500 50
2011-03-15 09:10:09 51°24.472 2°43.683 9 11 6.9 101500 50
2011-03-15 09:10:14 51°24.479 2°43.684 10.5 10 6.9 101500 50
2011-03-15 09:10:18 51°24.484 2°43.684 10.9 9 6.9 101500 50
2011-03-15 09:10:24 51°24.492 2°43.685 8.5 8 6.9 101500 50
2011-03-15 09:10:29 51°24.498 2°43.687 9.4 7 6.9 101490 52
2011-03-15 09:10:34 51°24.504 2°43.688 9.6 11 6.9 101490 52
2011-03-15 09:10:39 51°24.509 2°43.689 10.2 9 6.9 101500 50
2011-03-15 09:10:44 51°24.514 2°43.691 8.6 8 6.9 101500 50
2011-03-15 09:10:49 51°24.52 2°43.692 8.4 6 6.9 101500 51
2011-03-15 09:10:54 51°24.525 2°43.693 9.7 10 6.9 101500 51
2011-03-15 09:10:59 51°24.53 2°43.694 9 8 6.9 101500 52
2011-03-15 09:11:04 51°24.534 2°43.696 8.2 5 6.9 101500 52
2011-03-15 09:11:09 51°24.539 2°43.697 7.5 7 6.9 101500 51
2011-03-15 09:11:14 51°24.544 2°43.699 6.4 7 6.9 101500 51
2011-03-15 09:11:19 51°24.549 2°43.7 6.7 7 6.9 101500 50
2011-03-15 09:11:24 51°24.553 2°43.701 7.9 8 6.9 101500 50
2011-03-15 09:11:29 51°24.558 2°43.702 10.2 9 6.9 101500 52
2011-03-15 09:11:34 51°24.562 2°43.704 7.3 9 6.9 101500 52
2011-03-15 09:11:39 51°24.567 2°43.705 8.9 8 6.9 101490 49
2011-03-15 09:11:44 51°24.571 2°43.706 7.3 8 6.9 101490 49
2011-03-15 09:11:49 51°24.575 2°43.707 7.4 7 6.9 101490 49
2011-03-15 09:11:54 51°24.58 2°43.709 7.5 11 6.9 101490 49
2011-03-15 09:11:59 51°24.584 2°43.71 9.2 10 6.9 101490 50
2011-03-15 09:12:04 51°24.588 2°43.711 8.9 9 6.9 101490 50
2011-03-15 09:12:09 51°24.592 2°43.712 6.7 12 6.9 101490 52
2011-03-15 09:12:14 51°24.597 2°43.714 8.9 10 6.9 101490 52
2011-03-15 09:12:18 51°24.6 2°43.714 9.2 8 6.9 101490 51
2011-03-15 09:12:24 51°24.604 2°43.716 10.1 9 6.9 101490 51
2011-03-15 09:12:29 51°24.608 2°43.717 9.6 9 6.9 101490 50
2011-03-15 09:12:34 51°24.611 2°43.718 10 11 6.9 101490 50
2011-03-15 09:12:38 51°24.614 2°43.719 9 11 6.9 101490 51
2011-03-15 09:12:44 51°24.619 2°43.72 7.1 11 6.9 101490 51
2011-03-15 09:12:49 51°24.622 2°43.721 7.2 10 6.9 101490 52
2011-03-15 09:12:54 51°24.626 2°43.722 8.1 16 6.9 101490 52
2011-03-15 09:12:59 51°24.629 2°43.723 10.5 13 6.9 101480 52
2011-03-15 09:13:04 51°24.633 2°43.724 9.4 15 6.9 101480 52
2011-03-15 09:13:09 51°24.637 2°43.724 9.3 15 6.9 101480 51
2011-03-15 09:13:14 51°24.641 2°43.724 10.3 19 6.9 101480 51
2011-03-15 09:13:19 51°24.644 2°43.724 7.3 20 6.8 101480 52
2011-03-15 09:13:24 51°24.648 2°43.724 6.9 22 6.8 101480 52
2011-03-15 09:13:29 51°24.652 2°43.724 9.6 20 6.9 101480 51
2011-03-15 09:13:34 51°24.655 2°43.724 8.9 24 6.9 101480 51
2011-03-15 09:13:39 51°24.658 2°43.724 8.4 20 6.9 101480 52
2011-03-15 09:13:44 51°24.661 2°43.724 8.9 22 6.9 101480 52
2011-03-15 09:13:49 51°24.663 2°43.724 8 24 6.9 101480 52
2011-03-15 09:13:54 51°24.665 2°43.724 9.3 25 6.9 101480 52
2011-03-15 09:13:59 51°24.666 2°43.723 9 25 6.9 101480 51
2011-03-15 09:14:04 51°24.668 2°43.724 8.5 23 6.9 101480 51
2011-03-15 09:14:09 51°24.67 2°43.723 9.1 20 6.9 101480 50
2011-03-15 09:14:14 51°24.672 2°43.723 7.4 20 6.9 101480 50
2011-03-15 09:14:19 51°24.674 2°43.723 8.8 21 6.9 101480 49
2011-03-15 09:14:24 51°24.675 2°43.723 7.1 22 6.9 101480 49
2011-03-15 09:14:29 51°24.677 2°43.723 9.3 20 6.9 101480 52
2011-03-15 09:14:34 51°24.678 2°43.723 7.6 23 6.9 101480 52
2011-03-15 09:14:39 51°24.68 2°43.723 6.5 23 7 101480 50
2011-03-15 09:14:44 51°24.682 2°43.724 7.2 18 7 101480 50
2011-03-15 09:14:49 51°24.684 2°43.724 7.3 21 7 101480 52
2011-03-15 09:14:54 51°24.685 2°43.724 9.9 20 7 101480 52
2011-03-15 09:14:59 51°24.687 2°43.724 9.3 20 6.9 101490 51
2011-03-15 09:15:04 51°24.688 2°43.724 7.3 22 6.9 101490 51
2011-03-15 09:15:09 51°24.69 2°43.724 7.8 21 6.9 101480 51
2011-03-15 09:15:14 51°24.691 2°43.725 8 17 6.9 101480 51
2011-03-15 09:15:18 51°24.693 2°43.725 10.4 20 6.9 101490 49
2011-03-15 09:15:24 51°24.695 2°43.725 7.8 18 6.9 101490 49
2011-03-15 09:15:29 51°24.696 2°43.725 8.8 16 6.9 101480 51
2011-03-15 09:15:34 51°24.698 2°43.725 9.8 20 6.9 101480 51
2011-03-15 09:15:38 51°24.699 2°43.725 9.6 20 6.9 101480 52
2011-03-15 09:15:44 51°24.701 2°43.725 8.4 15 6.9 101480 52
2011-03-15 09:15:49 51°24.702 2°43.725 7.1 16 6.9 101480 50
2011-03-15 09:15:54 51°24.703 2°43.725 7 14 6.9 101480 50
2011-03-15 09:15:59 51°24.705 2°43.726 7.1 14 6.9 101470 51
2011-03-15 09:16:04 51°24.706 2°43.726 8.8 14 6.9 101470 51
2011-03-15 09:16:09 51°24.708 2°43.726 9.3 13 6.9 101480 49
2011-03-15 09:16:14 51°24.709 2°43.727 7.8 15 6.9 101480 49
2011-03-15 09:16:19 51°24.71 2°43.727 7.7 16 6.9 101480 49
2011-03-15 09:16:24 51°24.712 2°43.727 7.1 19 6.9 101480 49
2011-03-15 09:16:29 51°24.713 2°43.727 7.1 15 6.9 101480 49
2011-03-15 09:16:34 51°24.714 2°43.727 8.8 11 6.9 101480 49
2011-03-15 09:16:38 51°24.715 2°43.727 10 13 6.9 101480 52
2011-03-15 09:16:44 51°24.717 2°43.727 7.3 15 6.9 101480 52
2011-03-15 09:16:49 51°24.717 2°43.727 8.6 15 6.9 101470 50
2011-03-15 09:16:54 51°24.718 2°43.727 7.6 16 6.9 101470 50
2011-03-15 09:16:59 51°24.718 2°43.726 9 19 7 101470 51
2011-03-15 09:17:04 51°24.718 2°43.726 8.4 17 7 101470 51
2011-03-15 09:17:09 51°24.718 2°43.726 8.7 21 7 101480 51
2011-03-15 09:17:14 51°24.717 2°43.725 9.7 19 7 101480 51
2011-03-15 09:17:19 51°24.717 2°43.725 8.6 21 6.9 101480 49
2011-03-15 09:17:24 51°24.716 2°43.725 7.6 24 6.9 101480 49
2011-03-15 09:17:29 51°24.714 2°43.725 9.8 26 7 101480 52
2011-03-15 09:17:34 51°24.713 2°43.725 8.6 25 7 101480 52
2011-03-15 09:17:39 51°24.71 2°43.726 8.2 28 7 101490 52
2011-03-15 09:17:44 51°24.708 2°43.727 10.3 26 7 101490 52
2011-03-15 09:17:49 51°24.706 2°43.728 7.3 28 7 101480 49
2011-03-15 09:17:54 51°24.704 2°43.729 10.7 29 7 101480 49
2011-03-15 09:17:58 51°24.702 2°43.731 9.4 33 7 101470 51
2011-03-15 09:18:04 51°24.699 2°43.733 9.7 31 7 101470 51
2011-03-15 09:18:09 51°24.696 2°43.735 7.5 34 7 101480 52
2011-03-15 09:18:14 51°24.693 2°43.737 6.8 32 7 101480 52
2011-03-15 09:18:19 51°24.691 2°43.74 7.8 33 7 101480 51
2011-03-15 09:18:24 51°24.687 2°43.742 8.6 33 7 101480 51
2011-03-15 09:18:29 51°24.685 2°43.745 9.7 32 7 101480 52
2011-03-15 09:18:34 51°24.682 2°43.748 8.1 36 7 101480 52
2011-03-15 09:18:39 51°24.679 2°43.751 8.3 39 7 101470 50
2011-03-15 09:18:44 51°24.677 2°43.754 10.1 35 7 101470 50
2011-03-15 09:18:49 51°24.675 2°43.757 8.2 37 7 101470 51
2011-03-15 09:18:54 51°24.673 2°43.76 7.4 37 7 101470 51
2011-03-15 09:18:59 51°24.671 2°43.764 8.8 39 7 101470 52
2011-03-15 09:19:04 51°24.67 2°43.767 7.5 34 7 101470 52
2011-03-15 09:19:09 51°24.668 2°43.77 7.2 38 7 101470 49
2011-03-15 09:19:14 51°24.667 2°43.773 7.5 36 7 101470 49
2011-03-15 09:19:19 51°24.666 2°43.776 10 39 7 101480 52
2011-03-15 09:19:24 51°24.665 2°43.779 9.6 38 7 101480 52
2011-03-15 09:19:29 51°24.664 2°43.781 9.1 37 7 101470 51
2011-03-15 09:19:34 51°24.663 2°43.784 9.9 41 7 101470 51
2011-03-15 09:19:39 51°24.663 2°43.786 7.6 40 7 101480 49
2011-03-15 09:19:44 51°24.663 2°43.787 8.3 41 7 101480 49
2011-03-15 09:19:49 51°24.663 2°43.787 6.4 41 7 101470 52
2011-03-15 09:19:54 51°24.664 2°43.786 6.3 32 7 101470 52
2011-03-15 09:19:59 51°24.666 2°43.785 7.2 25 7 101480 50
2011-03-15 09:20:04 51°24.667 2°43.782 6.2 39 7 101480 50
2011-03-15 09:20:09 51°24.669 2°43.779 6.4 20 7 101480 52
2011-03-15 09:20:14 51°24.67 2°43.775 5.7 32 7 101480 52
2011-03-15 09:20:19 51°24.671 2°43.769 5.1 25 7 101470 52
2011-03-15 09:20:24 51°24.671 2°43.763 3.5 31 7 101470 52
2011-03-15 09:20:29 51°24.672 2°43.756 4 21 7 101490 51
2011-03-15 09:20:34 51°24.672 2°43.749 4.7 31 7 101490 51
2011-03-15 09:20:39 51°24.672 2°43.743 7.2 22 7 101480 49
2011-03-15 09:20:44 51°24.672 2°43.738 8.5 35 7 101480 49
2011-03-15 09:20:49 51°24.672 2°43.733 7 25 7.1 101490 51
2011-03-15 09:20:54 51°24.672 2°43.73 7.7 34 7.1 101490 51
2011-03-15 09:20:58 51°24.672 2°43.727 7.4 26 7.1 101500 50
2011-03-15 09:21:04 51°24.672 2°43.725 8.9 31 7.1 101500 50
2011-03-15 09:21:09 51°24.673 2°43.725 8.4 19 7.1 101490 50